Weather History for Valentine, NE

Change the Weather History Date:

Tuesday, February 28, 2012

  Actual Average Record
Temperature  
Mean Temperature 30 °F 31 °F  
Max Temperature 37 °F 44 °F 76 °F (2006)
Min Temperature 22 °F 18 °F -27 °F (1962)
Degree Days  
Heating Degree Days 35 34  
Month to date heating degree days 1046 1056  
Since 1 July heating degree days 4714 5236  
Cooling Degree Days 0 0  
Month to date cooling degree days 0 0  
Year to date cooling degree days 0 0  
Moisture  
Dew Point 27 °F    
Average Humidity 76    
Maximum Humidity 100    
Minimum Humidity 52    
Precipitation  
Precipitation 0.83 in 0.02 in 0.83 in (2012)
Month to date precipitation 1.55 0.48  
Year to date precipitation 1.74 0.74  
Snow  
Snow 5.00 in 0.20 in 5.00 in (2012)
Month to date snowfall 10.0 5.6  
Since 1 July snowfall 14.9 22.1  
Snow Depth 0.00 in    
Sea Level Pressure  
Sea Level Pressure 29.63 in    
Wind  
Wind Speed 13 mph (ENE)    
Max Wind Speed 30 mph    
Max Gust Speed 66 mph    
Visibility 4 miles    
Events Fog , Rain , Snow    
T = Trace of Precipitation, MM = Missing Value Source: NWS Daily Summary

Daily Weather History Graph

Daily Weather History Graph

Search for Another Location

Airport:

Trip Planner

Search our weather history database for the weather conditions in past years. The results will help you decide how hot, cold, wet, or windy it might be!

Date:

Astronomy

Feb. 28, 2012 Rise Set
Actual Time 7:20 AM CST 6:29 PM CST
Civil Twilight 6:51 AM CST 6:58 PM CST
Nautical Twilight 6:19 AM CST 7:31 PM CST
Astronomical Twilight 5:46 AM CST 8:03 PM CST
Moon 10:18 AM CST (2/28) 12:34 AM CST (2/28)
Length of Visible Light 12h 06m
Length of Day
11h 09m
Waxing Crescent, 38% of the Moon is Illuminated
Feb 28
Waxing Crescent
Feb 29
First Quarter
Mar 8
Full
Mar 14
Last Quarter
Mar 22
New

Hourly Weather History & Observations

Time (CST) Temp. Windchill Dew Point Humidity Pressure Visibility Wind Dir Wind Speed Gust Speed Precip Events Conditions
12:52 AM 36.0 °F 27.1 °F 19.0 °F 50% 30.04 in 10.0 mi South 13.8 mph 18.4 mph N/A   Clear
1:52 AM 35.1 °F 24.5 °F 19.9 °F 54% 29.99 in 10.0 mi South 18.4 mph 25.3 mph N/A   Clear
2:52 AM 34.0 °F 27.2 °F 21.9 °F 61% 29.98 in 10.0 mi South 8.1 mph - N/A   Clear
3:52 AM 35.1 °F 26.4 °F 23.0 °F 61% 29.94 in 10.0 mi South 12.7 mph 19.6 mph N/A   Clear
4:52 AM 35.1 °F 29.3 °F 23.0 °F 61% 29.93 in 10.0 mi SSE 6.9 mph - N/A   Clear
5:52 AM 34.0 °F 28.8 °F 23.0 °F 64% 29.91 in 10.0 mi SSE 5.8 mph - N/A   Partly Cloudy
6:11 AM 33.8 °F 29.6 °F 23.0 °F 65% 29.85 in 10.0 mi ESE 4.6 mph - N/A   Mostly Cloudy
6:52 AM 34.0 °F 29.8 °F 23.0 °F 64% 29.89 in 10.0 mi ESE 4.6 mph - N/A   Overcast
7:52 AM 36.0 °F 29.6 °F 25.0 °F 64% 29.86 in 10.0 mi SE 8.1 mph - N/A   Overcast
8:52 AM 37.0 °F 30.4 °F 26.1 °F 65% 29.83 in 10.0 mi SE 9.2 mph - N/A   Overcast
9:52 AM 36.0 °F 27.5 °F 28.9 °F 76% 29.81 in 10.0 mi SSE 12.7 mph - N/A   Overcast
10:36 AM 35.6 °F 28.6 °F 30.2 °F 81% 29.72 in 10.0 mi SE 9.2 mph - N/A   Overcast
10:52 AM 35.1 °F 27.9 °F 30.9 °F 85% 29.76 in 6.0 mi ESE 9.2 mph - 0.00 in Rain Light Rain
11:29 AM 33.8 °F 27.0 °F 32.0 °F 93% 29.67 in 2.0 mi ESE 8.1 mph - 0.05 in Rain Rain
11:52 AM 34.0 °F 27.2 °F 33.1 °F 96% 29.71 in 2.0 mi ESE 8.1 mph - 0.11 in Rain Rain
11:59 AM 33.8 °F 27.7 °F 33.8 °F 100% 29.65 in 1.5 mi ESE 6.9 mph - 0.01 in Rain Rain
12:42 PM 33.8 °F 27.0 °F 33.8 °F 100% 29.62 in 2.5 mi East 8.1 mph - 0.05 in   Overcast
12:52 PM 34.0 °F 25.0 °F 33.1 °F 96% 29.68 in 3.0 mi ESE 12.7 mph - 0.05 in   Overcast
12:59 PM 33.8 °F 25.8 °F 33.8 °F 100% 29.61 in 1.8 mi East 10.4 mph - 0.00 in   Overcast
1:10 PM 33.8 °F 23.5 °F 32.0 °F 93% 29.60 in 3.0 mi ESE 16.1 mph - 0.01 in Rain Light Rain
1:43 PM 33.8 °F 25.3 °F 32.0 °F 93% 29.57 in 2.0 mi East 11.5 mph - 0.01 in   Overcast
1:52 PM 34.0 °F 26.6 °F 32.0 °F 92% 29.62 in 1.5 mi East 9.2 mph - 0.01 in   Overcast
2:20 PM 33.8 °F 25.3 °F 32.0 °F 93% 29.55 in 1.5 mi East 11.5 mph - N/A   Overcast
2:52 PM 33.1 °F 23.9 °F 33.1 °F 100% 29.58 in 1.5 mi ENE 12.7 mph - N/A   Overcast
3:52 PM 32.0 °F 21.6 °F 30.9 °F 96% 29.55 in 1.0 mi NE 15.0 mph - N/A   Overcast
4:14 PM 32.0 °F 22.1 °F 30.2 °F 93% 29.48 in 1.2 mi NE 13.8 mph - N/A   Overcast
4:52 PM 32.0 °F 23.0 °F 30.9 °F 96% 29.51 in 1.5 mi ENE 11.5 mph - N/A   Overcast
5:16 PM 33.8 °F 25.3 °F 32.0 °F 93% 29.45 in 1.0 mi NNE 11.5 mph - 0.00 in   Overcast
5:26 PM 33.8 °F 25.8 °F 32.0 °F 93% 29.45 in 1.2 mi North 10.4 mph - 0.01 in Rain Rain
5:42 PM 32.0 °F 24.8 °F 32.0 °F 100% 29.46 in 2.0 mi North 8.1 mph - 0.05 in Rain Light Freezing Rain
5:48 PM 32.0 °F 24.2 °F 30.2 °F 93% 29.47 in 3.0 mi NNW 9.2 mph - 0.06 in Rain Light Freezing Rain
5:52 PM 32.0 °F 24.8 °F 30.9 °F 96% 29.53 in 3.0 mi NNW 8.1 mph - 0.06 in Snow Light Snow
5:57 PM 32.0 °F 24.8 °F 32.0 °F 100% 29.47 in 1.8 mi NNW 8.1 mph - 0.01 in Snow Light Snow
6:02 PM 32.0 °F 23.6 °F 30.2 °F 93% 29.47 in 1.0 mi North 10.4 mph - 0.04 in Snow Light Snow
6:21 PM 32.0 °F 24.2 °F 30.2 °F 93% 29.47 in 0.5 mi North 9.2 mph - 0.09 in Fog , Snow Snow
6:45 PM 30.2 °F 19.8 °F 30.2 °F 100% 29.46 in 0.2 mi North 13.8 mph - 0.14 in Fog , Snow Heavy Snow
6:52 PM 30.9 °F 19.8 °F 30.0 °F 96% 29.52 in 0.2 mi North 16.1 mph - 0.15 in Fog , Snow Heavy Snow
7:52 PM 25.0 °F - 23.0 °F 92% 29.53 in 0.2 mi North - - 0.20 in Fog , Snow Heavy Snow
8:25 PM 24.8 °F - 21.2 °F 86% 29.45 in 0.2 mi North - - 0.05 in Fog , Snow Snow
8:52 PM 21.9 °F 4.8 °F 19.9 °F 92% 29.54 in 0.2 mi NW 26.5 mph 42.6 mph 0.05 in Fog , Snow Snow
9:10 PM 21.2 °F 3.9 °F 19.4 °F 93% 29.48 in 0.5 mi NW 26.5 mph 39.1 mph 0.01 in Fog , Snow Light Snow
9:21 PM 21.2 °F 4.5 °F 19.4 °F 93% 29.48 in 0.5 mi NW 24.2 mph 40.3 mph 0.01 in Fog , Snow Snow
9:52 PM 21.9 °F 5.5 °F 19.0 °F 89% 29.55 in 0.2 mi NW 24.2 mph 36.8 mph 0.01 in Fog , Snow Heavy Snow
10:38 PM 21.2 °F 5.6 °F 19.4 °F 93% 29.46 in 0.2 mi WNW 20.7 mph 33.4 mph 0.06 in Fog , Snow Heavy Snow
10:52 PM 21.9 °F 5.8 °F 19.0 °F 89% 29.54 in 0.2 mi NW 23.0 mph 34.5 mph 0.17 in Fog , Snow Heavy Snow
11:05 PM 21.2 °F 4.9 °F 19.4 °F 93% 29.47 in 0.5 mi WNW 23.0 mph 33.4 mph 0.00 in Fog , Snow Snow
11:32 PM 21.2 °F 5.2 °F 19.4 °F 93% 29.48 in 0.5 mi WNW 21.9 mph 35.7 mph 0.02 in Fog , Snow Snow
11:50 PM 21.2 °F 4.5 °F 19.4 °F 93% 29.49 in 0.5 mi NW 24.2 mph 35.7 mph 0.02 in Fog , Snow Snow
11:52 PM 21.9 °F 4.8 °F 19.0 °F 89% 29.57 in 0.5 mi NW 26.5 mph 35.7 mph 0.02 in Fog , Snow Snow